Saint Bonnet de Bellac- Haute Vienne - France
Donnes mto: mercredi, 23/11/2011
Date Horaire Temp. E. Hum. E. P.atmo. Pluie Vent Direction Direction Ensoleilleme Solaire P. de rose Temp au vent Rafales
23/11/2011 00:00 8,6 C 86 % 1020,8 hPa 0,0 mm 0,0 km/h (0 Bft) NE 45 0 min 0 W/m 6,4 C 8,6 C 0,0 km/h (0 Bft)
23/11/2011 00:05 8,5 C 86 % 1020,9 hPa 0,0 mm 0,0 km/h (0 Bft) NE 45 0 min 0 W/m 6,3 C 8,5 C 0,0 km/h (0 Bft)
23/11/2011 00:10 8,4 C 86 % 1020,9 hPa 0,0 mm 0,0 km/h (0 Bft) N-NE 22 0 min 0 W/m 6,2 C 8,4 C 0,0 km/h (0 Bft)
23/11/2011 00:15 8,4 C 87 % 1020,8 hPa 0,0 mm 0,0 km/h (0 Bft) N-NE 22 0 min 0 W/m 6,4 C 8,4 C 0,0 km/h (0 Bft)
23/11/2011 00:20 8,4 C 87 % 1020,9 hPa 0,0 mm 0,0 km/h (0 Bft) N-NE 22 0 min 0 W/m 6,4 C 8,4 C 0,0 km/h (0 Bft)
23/11/2011 00:25 8,4 C 87 % 1020,9 hPa 0,0 mm 0,0 km/h (0 Bft) N 360 0 min 0 W/m 6,4 C 8,4 C 0,0 km/h (0 Bft)
23/11/2011 00:30 8,4 C 88 % 1021,0 hPa 0,0 mm 0,0 km/h (0 Bft) N 360 0 min 0 W/m 6,5 C 8,4 C 0,0 km/h (0 Bft)
23/11/2011 00:35 8,4 C 88 % 1021,1 hPa 0,0 mm 0,0 km/h (0 Bft) N-NE 22 0 min 0 W/m 6,5 C 8,4 C 0,0 km/h (0 Bft)
23/11/2011 00:40 8,4 C 88 % 1021,1 hPa 0,0 mm 0,0 km/h (0 Bft) N 360 0 min 0 W/m 6,5 C 8,4 C 0,0 km/h (0 Bft)
23/11/2011 00:45 8,4 C 88 % 1021,0 hPa 0,0 mm 0,0 km/h (0 Bft) N-NO 337 0 min 0 W/m 6,5 C 8,4 C 0,0 km/h (0 Bft)
23/11/2011 00:50 8,4 C 88 % 1021,0 hPa 0,0 mm 0,0 km/h (0 Bft) N 360 0 min 0 W/m 6,5 C 8,4 C 0,0 km/h (0 Bft)
23/11/2011 00:55 8,4 C 89 % 1021,1 hPa 0,0 mm 0,4 km/h (0 Bft) N-NE 22 0 min 0 W/m 6,7 C 8,4 C 3,6 km/h (1 Bft)
23/11/2011 01:00 8,4 C 89 % 1021,0 hPa 0,0 mm 0,0 km/h (0 Bft) N-NE 22 0 min 0 W/m 6,7 C 8,4 C 0,0 km/h (0 Bft)
23/11/2011 01:05 8,4 C 89 % 1021,1 hPa 0,0 mm 0,0 km/h (0 Bft) N-NE 22 0 min 0 W/m 6,7 C 8,4 C 0,0 km/h (0 Bft)
23/11/2011 01:10 8,4 C 89 % 1021,1 hPa 0,0 mm 0,0 km/h (0 Bft) N-NE 22 0 min 0 W/m 6,7 C 8,4 C 0,0 km/h (0 Bft)
23/11/2011 01:15 8,3 C 89 % 1021,1 hPa 0,0 mm 0,0 km/h (0 Bft) N-NE 22 0 min 0 W/m 6,6 C 8,3 C 0,0 km/h (0 Bft)
23/11/2011 01:20 8,3 C 89 % 1021,1 hPa 0,0 mm 0,0 km/h (0 Bft) N-NE 22 0 min 0 W/m 6,6 C 8,3 C 0,0 km/h (0 Bft)
23/11/2011 01:25 8,3 C 89 % 1021,1 hPa 0,0 mm 0,0 km/h (0 Bft) N 360 0 min 0 W/m 6,6 C 8,3 C 0,0 km/h (0 Bft)
23/11/2011 01:30 8,1 C 89 % 1021,0 hPa 0,0 mm 0,0 km/h (0 Bft) N 360 0 min 0 W/m 6,4 C 8,1 C 0,0 km/h (0 Bft)
23/11/2011 01:35 8,0 C 89 % 1021,0 hPa 0,0 mm 0,0 km/h (0 Bft) N 360 0 min 0 W/m 6,3 C 8,0 C 3,6 km/h (1 Bft)
23/11/2011 01:40 7,9 C 89 % 1021,1 hPa 0,0 mm 0,0 km/h (0 Bft) N-NE 22 0 min 0 W/m 6,2 C 7,9 C 0,0 km/h (0 Bft)
23/11/2011 01:45 7,9 C 89 % 1021,1 hPa 0,0 mm 0,4 km/h (0 Bft) N-NE 22 0 min 0 W/m 6,2 C 7,9 C 0,4 km/h (0 Bft)
23/11/2011 01:50 7,8 C 89 % 1021,1 hPa 0,0 mm 0,0 km/h (0 Bft) N-NE 22 0 min 0 W/m 6,1 C 7,8 C 0,0 km/h (0 Bft)
23/11/2011 01:55 7,8 C 89 % 1021,0 hPa 0,0 mm 0,0 km/h (0 Bft) N-NE 22 0 min 0 W/m 6,1 C 7,8 C 0,0 km/h (0 Bft)
23/11/2011 02:02 7,8 C 89 % 1021,1 hPa 0,0 mm 0,0 km/h (0 Bft) N-NE 22 0 min 0 W/m 6,1 C 7,8 C 0,0 km/h (0 Bft)
23/11/2011 02:05 7,8 C 90 % 1021,1 hPa 0,0 mm 0,0 km/h (0 Bft) N 360 0 min 0 W/m 6,3 C 7,8 C 0,0 km/h (0 Bft)
23/11/2011 02:10 7,8 C 90 % 1021,2 hPa 0,0 mm 0,0 km/h (0 Bft) N 360 0 min 0 W/m 6,3 C 7,8 C 0,0 km/h (0 Bft)
23/11/2011 02:15 7,8 C 90 % 1021,3 hPa 0,0 mm 0,4 km/h (0 Bft) N-NO 337 0 min 0 W/m 6,3 C 7,8 C 0,4 km/h (0 Bft)
23/11/2011 02:20 7,7 C 90 % 1021,4 hPa 0,0 mm 0,0 km/h (0 Bft) N-NO 337 0 min 0 W/m 6,2 C 7,7 C 0,0 km/h (0 Bft)
23/11/2011 02:25 7,6 C 90 % 1021,4 hPa 0,0 mm 0,0 km/h (0 Bft) N 360 0 min 0 W/m 6,1 C 7,6 C 0,0 km/h (0 Bft)
23/11/2011 02:30 7,5 C 90 % 1021,4 hPa 0,0 mm 0,0 km/h (0 Bft) N-NE 22 0 min 0 W/m 6,0 C 7,5 C 0,0 km/h (0 Bft)
23/11/2011 02:35 7,5 C 90 % 1021,5 hPa 0,0 mm 0,0 km/h (0 Bft) N-NE 22 0 min 0 W/m 6,0 C 7,5 C 0,0 km/h (0 Bft)
23/11/2011 02:40 7,5 C 90 % 1021,5 hPa 0,0 mm 0,0 km/h (0 Bft) N-NE 22 0 min 0 W/m 6,0 C 7,5 C 0,0 km/h (0 Bft)
23/11/2011 02:45 7,4 C 90 % 1021,6 hPa 0,0 mm 0,0 km/h (0 Bft) N-NE 22 0 min 0 W/m 5,9 C 7,4 C 0,0 km/h (0 Bft)
23/11/2011 02:50 7,4 C 90 % 1021,5 hPa 0,0 mm 0,0 km/h (0 Bft) N-NE 22 0 min 0 W/m 5,9 C 7,4 C 0,0 km/h (0 Bft)
23/11/2011 02:55 7,4 C 90 % 1021,6 hPa 0,0 mm 0,0 km/h (0 Bft) N-NE 22 0 min 0 W/m 5,9 C 7,4 C 0,0 km/h (0 Bft)
23/11/2011 03:00 7,3 C 90 % 1021,6 hPa 0,0 mm 0,0 km/h (0 Bft) N-NE 22 0 min 0 W/m 5,8 C 7,3 C 0,0 km/h (0 Bft)
23/11/2011 03:05 7,3 C 90 % 1021,6 hPa 0,0 mm 0,0 km/h (0 Bft) N-NE 22 0 min 0 W/m 5,8 C 7,3 C 0,0 km/h (0 Bft)
23/11/2011 03:10 7,2 C 90 % 1021,6 hPa 0,0 mm 0,0 km/h (0 Bft) N-NE 22 0 min 0 W/m 5,7 C 7,2 C 0,0 km/h (0 Bft)
23/11/2011 03:15 7,1 C 90 % 1021,5 hPa 0,0 mm 0,0 km/h (0 Bft) N-NE 22 0 min 0 W/m 5,6 C 7,1 C 0,0 km/h (0 Bft)
23/11/2011 03:20 7,1 C 90 % 1021,6 hPa 0,0 mm 0,0 km/h (0 Bft) N-NE 22 0 min 0 W/m 5,6 C 7,1 C 0,0 km/h (0 Bft)
23/11/2011 03:25 6,9 C 90 % 1021,7 hPa 0,0 mm 0,0 km/h (0 Bft) N-NE 22 0 min 0 W/m 5,4 C 6,9 C 0,0 km/h (0 Bft)
23/11/2011 03:30 6,8 C 90 % 1021,6 hPa 0,0 mm 0,0 km/h (0 Bft) N-NE 22 0 min 0 W/m 5,3 C 6,8 C 0,0 km/h (0 Bft)
23/11/2011 03:35 6,8 C 90 % 1021,7 hPa 0,0 mm 0,0 km/h (0 Bft) N-NE 22 0 min 0 W/m 5,3 C 6,8 C 0,0 km/h (0 Bft)
23/11/2011 03:40 6,6 C 90 % 1021,8 hPa 0,0 mm 0,0 km/h (0 Bft) N-NE 22 0 min 0 W/m 5,1 C 6,6 C 0,0 km/h (0 Bft)
23/11/2011 03:45 6,5 C 90 % 1021,8 hPa 0,0 mm 0,0 km/h (0 Bft) N-NE 22 0 min 0 W/m 5,0 C 6,5 C 0,0 km/h (0 Bft)
23/11/2011 03:50 6,4 C 90 % 1021,8 hPa 0,0 mm 0,0 km/h (0 Bft) N-NE 22 0 min 0 W/m 4,9 C 6,4 C 0,0 km/h (0 Bft)
23/11/2011 03:55 6,3 C 90 % 1021,7 hPa 0,0 mm 0,0 km/h (0 Bft) N-NE 22 0 min 0 W/m 4,8 C 6,3 C 0,0 km/h (0 Bft)
23/11/2011 04:00 6,2 C 91 % 1021,7 hPa 0,0 mm 0,0 km/h (0 Bft) N-NE 22 0 min 0 W/m 4,8 C 6,2 C 0,0 km/h (0 Bft)
23/11/2011 04:05 6,1 C 91 % 1021,7 hPa 0,0 mm 0,0 km/h (0 Bft) SE 135 0 min 0 W/m 4,7 C 6,1 C 0,0 km/h (0 Bft)
23/11/2011 04:10 6,0 C 91 % 1021,7 hPa 0,0 mm 0,0 km/h (0 Bft) SE 135 0 min 0 W/m 4,6 C 6,0 C 0,0 km/h (0 Bft)
23/11/2011 04:15 5,9 C 90 % 1021,7 hPa 0,0 mm 0,0 km/h (0 Bft) SE 135 0 min 0 W/m 4,4 C 5,9 C 0,0 km/h (0 Bft)
23/11/2011 04:20 5,9 C 90 % 1021,8 hPa 0,0 mm 0,0 km/h (0 Bft) E-SE 112 0 min 0 W/m 4,4 C 5,9 C 0,0 km/h (0 Bft)
23/11/2011 04:25 5,8 C 90 % 1021,8 hPa 0,0 mm 0,0 km/h (0 Bft) E-SE 112 0 min 0 W/m 4,3 C 5,8 C 0,0 km/h (0 Bft)
23/11/2011 04:30 5,8 C 90 % 1021,8 hPa 0,0 mm 0,0 km/h (0 Bft) E-SE 112 0 min 0 W/m 4,3 C 5,8 C 0,0 km/h (0 Bft)
23/11/2011 04:35 5,8 C 90 % 1021,8 hPa 0,0 mm 0,0 km/h (0 Bft) N 360 0 min 0 W/m 4,3 C 5,8 C 0,0 km/h (0 Bft)
23/11/2011 04:40 5,6 C 90 % 1021,9 hPa 0,0 mm 0,0 km/h (0 Bft) N 360 0 min 0 W/m 4,1 C 5,6 C 0,0 km/h (0 Bft)
23/11/2011 04:45 5,5 C 90 % 1021,9 hPa 0,0 mm 0,0 km/h (0 Bft) NO 315 0 min 0 W/m 4,0 C 5,5 C 0,0 km/h (0 Bft)
23/11/2011 04:50 5,4 C 90 % 1021,9 hPa 0,0 mm 0,0 km/h (0 Bft) NO 315 0 min 0 W/m 3,9 C 5,4 C 0,0 km/h (0 Bft)
23/11/2011 04:55 5,4 C 91 % 1022,0 hPa 0,0 mm 0,0 km/h (0 Bft) N 360 0 min 0 W/m 4,1 C 5,4 C 0,0 km/h (0 Bft)
23/11/2011 05:00 5,5 C 91 % 1021,9 hPa 0,0 mm 0,0 km/h (0 Bft) N 360 0 min 0 W/m 4,2 C 5,5 C 0,0 km/h (0 Bft)
23/11/2011 05:05 5,6 C 91 % 1021,9 hPa 0,0 mm 0,0 km/h (0 Bft) N 360 0 min 0 W/m 4,2 C 5,6 C 0,0 km/h (0 Bft)
23/11/2011 05:10 5,8 C 91 % 1021,9 hPa 0,0 mm 0,0 km/h (0 Bft) N 360 0 min 0 W/m 4,4 C 5,8 C 0,0 km/h (0 Bft)
23/11/2011 05:15 5,8 C 91 % 1022,1 hPa 0,0 mm 0,0 km/h (0 Bft) N 360 0 min 0 W/m 4,4 C 5,8 C 0,0 km/h (0 Bft)
23/11/2011 05:20 5,9 C 91 % 1022,2 hPa 0,0 mm 0,0 km/h (0 Bft) N 360 0 min 0 W/m 4,5 C 5,9 C 0,0 km/h (0 Bft)
23/11/2011 05:25 6,0 C 91 % 1022,2 hPa 0,0 mm 0,0 km/h (0 Bft) N-NE 22 0 min 0 W/m 4,6 C 6,0 C 0,0 km/h (0 Bft)
23/11/2011 05:30 6,1 C 91 % 1022,3 hPa 0,0 mm 0,0 km/h (0 Bft) N-NE 22 0 min 0 W/m 4,7 C 6,1 C 0,0 km/h (0 Bft)
23/11/2011 05:35 6,1 C 91 % 1022,3 hPa 0,0 mm 0,0 km/h (0 Bft) N-NE 22 0 min 0 W/m 4,7 C 6,1 C 0,0 km/h (0 Bft)
23/11/2011 05:40 6,1 C 91 % 1022,4 hPa 0,0 mm 0,0 km/h (0 Bft) N-NE 22 0 min 0 W/m 4,7 C 6,1 C 0,0 km/h (0 Bft)
23/11/2011 05:45 6,1 C 91 % 1022,6 hPa 0,0 mm 0,0 km/h (0 Bft) N-NE 22 0 min 0 W/m 4,7 C 6,1 C 0,0 km/h (0 Bft)
23/11/2011 05:50 6,1 C 91 % 1022,5 hPa 0,0 mm 0,0 km/h (0 Bft) N-NE 22 0 min 0 W/m 4,7 C 6,1 C 0,0 km/h (0 Bft)
23/11/2011 05:55 6,1 C 91 % 1022,5 hPa 0,0 mm 0,0 km/h (0 Bft) N-NE 22 0 min 0 W/m 4,7 C 6,1 C 0,0 km/h (0 Bft)
23/11/2011 06:00 6,1 C 91 % 1022,5 hPa 0,0 mm 0,0 km/h (0 Bft) NE 45 0 min 0 W/m 4,7 C 6,1 C 0,0 km/h (0 Bft)
23/11/2011 06:05 6,1 C 91 % 1022,4 hPa 0,0 mm 0,0 km/h (0 Bft) NE 45 0 min 0 W/m 4,7 C 6,1 C 0,0 km/h (0 Bft)
23/11/2011 06:10 6,1 C 91 % 1022,4 hPa 0,0 mm 0,0 km/h (0 Bft) E-NE 67 0 min 0 W/m 4,7 C 6,1 C 0,0 km/h (0 Bft)
23/11/2011 06:15 6,0 C 91 % 1022,4 hPa 0,0 mm 0,0 km/h (0 Bft) E 90 0 min 0 W/m 4,6 C 6,0 C 0,0 km/h (0 Bft)
23/11/2011 06:20 5,9 C 91 % 1022,6 hPa 0,0 mm 0,0 km/h (0 Bft) E 90 0 min 0 W/m 4,5 C 5,9 C 0,0 km/h (0 Bft)
23/11/2011 06:25 5,9 C 91 % 1022,6 hPa 0,0 mm 0,0 km/h (0 Bft) E 90 0 min 0 W/m 4,5 C 5,9 C 0,0 km/h (0 Bft)
23/11/2011 06:30 5,8 C 91 % 1022,6 hPa 0,0 mm 0,0 km/h (0 Bft) SE 135 0 min 0 W/m 4,4 C 5,8 C 0,0 km/h (0 Bft)
23/11/2011 06:35 5,8 C 91 % 1022,6 hPa 0,0 mm 0,0 km/h (0 Bft) SE 135 0 min 0 W/m 4,4 C 5,8 C 0,0 km/h (0 Bft)
23/11/2011 06:40 5,6 C 91 % 1022,6 hPa 0,0 mm 0,0 km/h (0 Bft) S-SE 157 0 min 0 W/m 4,2 C 5,6 C 0,0 km/h (0 Bft)
23/11/2011 06:45 5,6 C 91 % 1022,6 hPa 0,0 mm 0,0 km/h (0 Bft) SE 135 0 min 0 W/m 4,2 C 5,6 C 0,0 km/h (0 Bft)
23/11/2011 06:50 5,5 C 91 % 1022,7 hPa 0,0 mm 0,0 km/h (0 Bft) SE 135 0 min 0 W/m 4,2 C 5,5 C 0,0 km/h (0 Bft)
23/11/2011 06:55 5,4 C 91 % 1022,8 hPa 0,0 mm 0,0 km/h (0 Bft) SE 135 0 min 0 W/m 4,1 C 5,4 C 0,0 km/h (0 Bft)
23/11/2011 07:00 5,4 C 92 % 1022,8 hPa 0,0 mm 0,0 km/h (0 Bft) E-SE 112 0 min 0 W/m 4,2 C 5,4 C 0,0 km/h (0 Bft)
23/11/2011 07:05 5,3 C 92 % 1022,9 hPa 0,0 mm 0,0 km/h (0 Bft) SE 135 0 min 0 W/m 4,1 C 5,3 C 0,0 km/h (0 Bft)
23/11/2011 07:10 5,2 C 92 % 1023,0 hPa 0,0 mm 0,0 km/h (0 Bft) SE 135 0 min 0 W/m 4,0 C 5,2 C 0,0 km/h (0 Bft)
23/11/2011 07:15 5,2 C 92 % 1023,2 hPa 0,0 mm 0,0 km/h (0 Bft) SE 135 0 min 0 W/m 4,0 C 5,2 C 0,0 km/h (0 Bft)
23/11/2011 07:20 5,1 C 92 % 1023,2 hPa 0,0 mm 0,0 km/h (0 Bft) SE 135 0 min 0 W/m 3,9 C 5,1 C 0,0 km/h (0 Bft)
23/11/2011 07:25 5,1 C 92 % 1023,3 hPa 0,0 mm 0,0 km/h (0 Bft) SE 135 0 min 0 W/m 3,9 C 5,1 C 0,0 km/h (0 Bft)
23/11/2011 07:30 5,1 C 92 % 1023,4 hPa 0,0 mm 0,0 km/h (0 Bft) SE 135 0 min 0 W/m 3,9 C 5,1 C 0,0 km/h (0 Bft)
23/11/2011 07:35 5,1 C 92 % 1023,4 hPa 0,0 mm 0,0 km/h (0 Bft) SE 135 0 min 0 W/m 3,9 C 5,1 C 0,0 km/h (0 Bft)
23/11/2011 07:40 5,1 C 92 % 1023,4 hPa 0,0 mm 0,0 km/h (0 Bft) E-NE 67 0 min 0 W/m 3,9 C 5,1 C 0,0 km/h (0 Bft)
23/11/2011 07:45 5,1 C 92 % 1023,4 hPa 0,0 mm 0,0 km/h (0 Bft) E-SE 112 0 min 0 W/m 3,9 C 5,1 C 0,0 km/h (0 Bft)
23/11/2011 07:50 5,1 C 92 % 1023,5 hPa 0,0 mm 0,0 km/h (0 Bft) SE 135 0 min 0 W/m 3,9 C 5,1 C 0,0 km/h (0 Bft)
23/11/2011 07:55 5,1 C 92 % 1023,5 hPa 0,0 mm 0,0 km/h (0 Bft) SE 135 0 min 0 W/m 3,9 C 5,1 C 0,0 km/h (0 Bft)
23/11/2011 08:00 5,1 C 92 % 1023,6 hPa 0,0 mm 0,0 km/h (0 Bft) SE 135 0 min 0 W/m 3,9 C 5,1 C 0,0 km/h (0 Bft)
23/11/2011 08:05 5,1 C 92 % 1023,7 hPa 0,0 mm 0,0 km/h (0 Bft) SE 135 0 min 0 W/m 3,9 C 5,1 C 0,0 km/h (0 Bft)
23/11/2011 08:10 5,1 C 93 % 1023,8 hPa 0,0 mm 0,0 km/h (0 Bft) SE 135 0 min 0 W/m 4,1 C 5,1 C 0,0 km/h (0 Bft)
23/11/2011 08:15 5,1 C 93 % 1024,0 hPa 0,0 mm 0,0 km/h (0 Bft) E-NE 67 0 min 0 W/m 4,1 C 5,1 C 0,0 km/h (0 Bft)
23/11/2011 08:20 5,1 C 93 % 1024,0 hPa 0,0 mm 0,0 km/h (0 Bft) E-NE 67 0 min 0 W/m 4,1 C 5,1 C 0,0 km/h (0 Bft)
23/11/2011 08:25 5,0 C 93 % 1024,0 hPa 0,0 mm 0,0 km/h (0 Bft) E-NE 67 0 min 0 W/m 4,0 C 5,0 C 0,0 km/h (0 Bft)
23/11/2011 08:30 4,9 C 93 % 1024,1 hPa 0,0 mm 0,0 km/h (0 Bft) E-NE 67 0 min 0 W/m 3,9 C 4,9 C 0,0 km/h (0 Bft)
23/11/2011 08:35 5,0 C 93 % 1024,3 hPa 0,0 mm 0,0 km/h (0 Bft) E-NE 67 0 min 0 W/m 4,0 C 5,0 C 0,0 km/h (0 Bft)
23/11/2011 08:40 5,0 C 93 % 1024,2 hPa 0,0 mm 0,0 km/h (0 Bft) N-NE 22 0 min 0 W/m 4,0 C 5,0 C 0,0 km/h (0 Bft)
23/11/2011 08:45 5,1 C 93 % 1024,4 hPa 0,0 mm 0,0 km/h (0 Bft) N-NE 22 0 min 0 W/m 4,1 C 5,1 C 0,0 km/h (0 Bft)
23/11/2011 08:50 5,1 C 93 % 1024,4 hPa 0,0 mm 0,0 km/h (0 Bft) N-NE 22 0 min 0 W/m 4,1 C 5,1 C 0,0 km/h (0 Bft)
23/11/2011 08:55 5,1 C 93 % 1024,6 hPa 0,0 mm 0,0 km/h (0 Bft) N 360 0 min 0 W/m 4,1 C 5,1 C 0,0 km/h (0 Bft)
23/11/2011 09:00 5,2 C 93 % 1024,7 hPa 0,0 mm 0,0 km/h (0 Bft) N-NO 337 0 min 0 W/m 4,2 C 5,2 C 0,0 km/h (0 Bft)
23/11/2011 09:05 5,3 C 93 % 1024,6 hPa 0,0 mm 0,0 km/h (0 Bft) NO 315 0 min 0 W/m 4,3 C 5,3 C 0,0 km/h (0 Bft)
23/11/2011 09:10 5,3 C 93 % 1024,8 hPa 0,0 mm 0,0 km/h (0 Bft) N 360 0 min 0 W/m 4,3 C 5,3 C 0,0 km/h (0 Bft)
23/11/2011 09:15 5,4 C 93 % 1024,8 hPa 0,0 mm 0,0 km/h (0 Bft) NO 315 0 min 0 W/m 4,4 C 5,4 C 0,0 km/h (0 Bft)
23/11/2011 09:20 5,4 C 93 % 1024,8 hPa 0,0 mm 0,0 km/h (0 Bft) NO 315 0 min 0 W/m 4,4 C 5,4 C 0,0 km/h (0 Bft)
23/11/2011 09:25 5,5 C 93 % 1024,9 hPa 0,0 mm 0,0 km/h (0 Bft) N 360 0 min 0 W/m 4,5 C 5,5 C 0,0 km/h (0 Bft)
23/11/2011 09:30 5,6 C 93 % 1024,9 hPa 0,0 mm 0,0 km/h (0 Bft) N 360 0 min 0 W/m 4,6 C 5,6 C 0,0 km/h (0 Bft)
23/11/2011 09:35 5,6 C 93 % 1025,0 hPa 0,0 mm 0,0 km/h (0 Bft) N-NE 22 0 min 0 W/m 4,6 C 5,6 C 0,0 km/h (0 Bft)
23/11/2011 09:40 5,7 C 93 % 1025,0 hPa 0,0 mm 0,0 km/h (0 Bft) N-NE 22 0 min 0 W/m 4,7 C 5,7 C 0,0 km/h (0 Bft)
23/11/2011 09:45 5,8 C 93 % 1025,0 hPa 0,0 mm 0,0 km/h (0 Bft) N-NE 22 0 min 0 W/m 4,8 C 5,8 C 0,0 km/h (0 Bft)
23/11/2011 09:50 5,8 C 93 % 1025,1 hPa 0,0 mm 0,0 km/h (0 Bft) N-NE 22 0 min 0 W/m 4,8 C 5,8 C 0,0 km/h (0 Bft)
23/11/2011 09:55 5,9 C 93 % 1025,1 hPa 0,0 mm 0,0 km/h (0 Bft) E-NE 67 0 min 0 W/m 4,9 C 5,9 C 0,0 km/h (0 Bft)
23/11/2011 10:00 6,0 C 93 % 1025,0 hPa 0,0 mm 0,0 km/h (0 Bft) E-NE 67 0 min 0 W/m 5,0 C 6,0 C 0,0 km/h (0 Bft)
23/11/2011 10:05 6,2 C 93 % 1025,0 hPa 0,0 mm 0,0 km/h (0 Bft) E-NE 67 0 min 0 W/m 5,2 C 6,2 C 0,0 km/h (0 Bft)
23/11/2011 10:10 6,3 C 93 % 1025,1 hPa 0,0 mm 0,0 km/h (0 Bft) E-NE 67 0 min 0 W/m 5,3 C 6,3 C 0,0 km/h (0 Bft)
23/11/2011 10:15 6,4 C 93 % 1025,1 hPa 0,0 mm 0,0 km/h (0 Bft) E-NE 67 0 min 0 W/m 5,4 C 6,4 C 0,0 km/h (0 Bft)
23/11/2011 10:20 6,6 C 93 % 1025,0 hPa 0,0 mm 0,0 km/h (0 Bft) E-NE 67 0 min 0 W/m 5,6 C 6,6 C 0,0 km/h (0 Bft)
23/11/2011 10:25 6,8 C 93 % 1025,1 hPa 0,0 mm 0,0 km/h (0 Bft) E-NE 67 0 min 0 W/m 5,7 C 6,8 C 0,0 km/h (0 Bft)
23/11/2011 10:30 6,8 C 93 % 1025,2 hPa 0,0 mm 0,0 km/h (0 Bft) E-NE 67 0 min 0 W/m 5,7 C 6,8 C 0,0 km/h (0 Bft)
23/11/2011 10:35 6,9 C 93 % 1025,2 hPa 0,0 mm 0,0 km/h (0 Bft) E-NE 67 0 min 0 W/m 5,8 C 6,9 C 0,0 km/h (0 Bft)
23/11/2011 10:40 7,1 C 93 % 1025,4 hPa 0,0 mm 0,0 km/h (0 Bft) E-NE 67 0 min 0 W/m 6,0 C 7,1 C 0,0 km/h (0 Bft)
23/11/2011 10:45 7,1 C 93 % 1025,6 hPa 0,0 mm 0,0 km/h (0 Bft) E-NE 67 0 min 0 W/m 6,0 C 7,1 C 0,0 km/h (0 Bft)
23/11/2011 10:50 7,1 C 93 % 1025,6 hPa 0,0 mm 0,0 km/h (0 Bft) E-NE 67 0 min 0 W/m 6,0 C 7,1 C 0,0 km/h (0 Bft)
23/11/2011 10:55 7,2 C 93 % 1025,5 hPa 0,0 mm 0,0 km/h (0 Bft) E-NE 67 0 min 0 W/m 6,1 C 7,2 C 0,0 km/h (0 Bft)
23/11/2011 11:00 7,2 C 93 % 1025,5 hPa 0,0 mm 0,0 km/h (0 Bft) E-NE 67 0 min 0 W/m 6,1 C 7,2 C 0,0 km/h (0 Bft)
23/11/2011 11:05 7,3 C 93 % 1025,5 hPa 0,0 mm 0,0 km/h (0 Bft) E-NE 67 0 min 0 W/m 6,2 C 7,3 C 0,0 km/h (0 Bft)
23/11/2011 11:10 7,3 C 93 % 1025,5 hPa 0,0 mm 0,0 km/h (0 Bft) E-NE 67 0 min 0 W/m 6,2 C 7,3 C 0,0 km/h (0 Bft)
23/11/2011 11:15 7,4 C 93 % 1025,6 hPa 0,0 mm 0,0 km/h (0 Bft) E-NE 67 0 min 0 W/m 6,3 C 7,4 C 0,0 km/h (0 Bft)
23/11/2011 11:20 7,5 C 93 % 1025,7 hPa 0,0 mm 0,0 km/h (0 Bft) E-NE 67 0 min 0 W/m 6,4 C 7,5 C 0,0 km/h (0 Bft)
23/11/2011 11:25 7,6 C 93 % 1025,7 hPa 0,0 mm 0,0 km/h (0 Bft) NE 45 0 min 0 W/m 6,5 C 7,6 C 0,0 km/h (0 Bft)
23/11/2011 11:30 7,6 C 93 % 1025,6 hPa 0,0 mm 0,0 km/h (0 Bft) NE 45 0 min 0 W/m 6,5 C 7,6 C 0,0 km/h (0 Bft)
23/11/2011 11:35 7,7 C 93 % 1025,7 hPa 0,0 mm 0,0 km/h (0 Bft) NE 45 0 min 0 W/m 6,6 C 7,7 C 0,0 km/h (0 Bft)
23/11/2011 11:40 7,8 C 93 % 1025,7 hPa 0,0 mm 0,0 km/h (0 Bft) NE 45 0 min 0 W/m 6,7 C 7,8 C 0,0 km/h (0 Bft)
23/11/2011 11:45 7,8 C 93 % 1025,7 hPa 0,0 mm 0,0 km/h (0 Bft) NE 45 0 min 0 W/m 6,7 C 7,8 C 0,0 km/h (0 Bft)
23/11/2011 11:50 7,8 C 93 % 1025,7 hPa 0,0 mm 0,0 km/h (0 Bft) N-NE 22 0 min 0 W/m 6,7 C 7,8 C 0,0 km/h (0 Bft)
23/11/2011 11:55 7,9 C 93 % 1025,7 hPa 0,0 mm 0,0 km/h (0 Bft) N-NE 22 0 min 0 W/m 6,8 C 7,9 C 0,0 km/h (0 Bft)
23/11/2011 12:00 8,0 C 93 % 1025,6 hPa 0,0 mm 0,4 km/h (0 Bft) N-NE 22 0 min 0 W/m 6,9 C 8,0 C 1,4 km/h (1 Bft)
23/11/2011 12:05 8,1 C 93 % 1025,6 hPa 0,0 mm 0,0 km/h (0 Bft) NE 45 0 min 0 W/m 7,0 C 8,1 C 0,0 km/h (0 Bft)
23/11/2011 12:10 8,2 C 93 % 1025,6 hPa 0,0 mm 0,0 km/h (0 Bft) NE 45 0 min 0 W/m 7,1 C 8,2 C 3,2 km/h (1 Bft)
23/11/2011 12:15 8,3 C 93 % 1025,5 hPa 0,0 mm 0,0 km/h (0 Bft) N-NE 22 0 min 0 W/m 7,2 C 8,3 C 0,0 km/h (0 Bft)
23/11/2011 12:20 8,4 C 94 % 1025,4 hPa 0,0 mm 0,0 km/h (0 Bft) N-NE 22 0 min 0 W/m 7,5 C 8,4 C 0,0 km/h (0 Bft)
23/11/2011 12:25 8,4 C 94 % 1025,3 hPa 0,0 mm 0,0 km/h (0 Bft) N-NE 22 0 min 0 W/m 7,5 C 8,4 C 0,0 km/h (0 Bft)
23/11/2011 12:30 8,5 C 94 % 1025,3 hPa 0,0 mm 0,4 km/h (0 Bft) N-NE 22 0 min 0 W/m 7,6 C 8,5 C 3,6 km/h (1 Bft)
23/11/2011 12:35 8,6 C 94 % 1025,3 hPa 0,0 mm 0,0 km/h (0 Bft) NE 45 0 min 0 W/m 7,7 C 8,6 C 0,0 km/h (0 Bft)
23/11/2011 12:40 8,6 C 94 % 1025,2 hPa 0,0 mm 0,0 km/h (0 Bft) E-NE 67 0 min 0 W/m 7,7 C 8,6 C 0,0 km/h (0 Bft)
23/11/2011 12:45 8,6 C 94 % 1025,2 hPa 0,0 mm 0,0 km/h (0 Bft) N-NE 22 0 min 0 W/m 7,7 C 8,6 C 0,0 km/h (0 Bft)
23/11/2011 12:50 8,6 C 94 % 1025,3 hPa 0,0 mm 0,0 km/h (0 Bft) N-NE 22 0 min 0 W/m 7,7 C 8,6 C 0,0 km/h (0 Bft)
23/11/2011 12:55 8,7 C 94 % 1025,3 hPa 0,0 mm 3,2 km/h (1 Bft) N-NE 22 0 min 0 W/m 7,8 C 8,7 C 4,3 km/h (1 Bft)
23/11/2011 13:00 8,8 C 94 % 1025,3 hPa 0,0 mm 2,5 km/h (1 Bft) N-NE 22 0 min 0 W/m 7,9 C 8,8 C 6,1 km/h (2 Bft)
23/11/2011 13:05 8,8 C 94 % 1025,3 hPa 0,0 mm 1,4 km/h (1 Bft) NE 45 0 min 0 W/m 7,9 C 8,8 C 2,9 km/h (1 Bft)
23/11/2011 13:10 8,8 C 94 % 1025,3 hPa 0,0 mm 1,8 km/h (1 Bft) N-NE 22 0 min 0 W/m 7,9 C 8,8 C 2,9 km/h (1 Bft)
23/11/2011 13:15 8,8 C 94 % 1025,3 hPa 0,0 mm 2,2 km/h (1 Bft) N-NE 22 0 min 0 W/m 7,9 C 8,8 C 4,3 km/h (1 Bft)
23/11/2011 13:20 8,8 C 94 % 1025,2 hPa 0,0 mm 1,1 km/h (1 Bft) NE 45 0 min 0 W/m 7,9 C 8,8 C 4,0 km/h (1 Bft)
23/11/2011 13:25 8,9 C 94 % 1025,3 hPa 0,0 mm 0,4 km/h (0 Bft) NE 45 0 min 0 W/m 8,0 C 8,9 C 3,6 km/h (1 Bft)
23/11/2011 13:30 8,9 C 94 % 1025,2 hPa 0,0 mm 2,5 km/h (1 Bft) E-NE 67 0 min 0 W/m 8,0 C 8,9 C 3,6 km/h (1 Bft)
23/11/2011 13:35 9,0 C 94 % 1025,2 hPa 0,0 mm 2,2 km/h (1 Bft) NE 45 0 min 0 W/m 8,1 C 9,0 C 4,3 km/h (1 Bft)
23/11/2011 13:40 8,9 C 94 % 1025,2 hPa 0,0 mm 1,4 km/h (1 Bft) N-NE 22 0 min 0 W/m 8,0 C 8,9 C 4,0 km/h (1 Bft)
23/11/2011 13:45 8,9 C 94 % 1025,3 hPa 0,0 mm 2,5 km/h (1 Bft) NE 45 0 min 0 W/m 8,0 C 8,9 C 4,0 km/h (1 Bft)
23/11/2011 13:50 8,9 C 94 % 1025,3 hPa 0,0 mm 0,7 km/h (0 Bft) NE 45 0 min 0 W/m 8,0 C 8,9 C 3,6 km/h (1 Bft)
23/11/2011 13:55 8,9 C 94 % 1025,3 hPa 0,0 mm 0,4 km/h (0 Bft) NE 45 0 min 0 W/m 8,0 C 8,9 C 2,9 km/h (1 Bft)
23/11/2011 14:00 8,9 C 94 % 1025,2 hPa 0,0 mm 2,2 km/h (1 Bft) N-NE 22 0 min 0 W/m 8,0 C 8,9 C 2,2 km/h (1 Bft)
23/11/2011 14:05 8,9 C 94 % 1025,2 hPa 0,0 mm 1,1 km/h (1 Bft) E-NE 67 0 min 0 W/m 8,0 C 8,9 C 4,3 km/h (1 Bft)
23/11/2011 14:10 8,9 C 94 % 1025,2 hPa 0,0 mm 0,4 km/h (0 Bft) E-NE 67 0 min 0 W/m 8,0 C 8,9 C 2,9 km/h (1 Bft)
23/11/2011 14:15 8,9 C 94 % 1025,1 hPa 0,0 mm 1,1 km/h (1 Bft) E-NE 67 0 min 0 W/m 8,0 C 8,9 C 4,3 km/h (1 Bft)
23/11/2011 14:20 9,0 C 94 % 1025,1 hPa 0,0 mm 4,3 km/h (1 Bft) NE 45 0 min 0 W/m 8,1 C 9,0 C 7,2 km/h (2 Bft)
23/11/2011 14:25 8,9 C 93 % 1025,1 hPa 0,0 mm 2,5 km/h (1 Bft) N-NE 22 0 min 0 W/m 7,8 C 8,9 C 7,2 km/h (2 Bft)
23/11/2011 14:30 8,9 C 93 % 1025,1 hPa 0,0 mm 2,2 km/h (1 Bft) N-NE 22 0 min 0 W/m 7,8 C 8,9 C 2,9 km/h (1 Bft)
23/11/2011 14:35 8,9 C 93 % 1025,2 hPa 0,0 mm 0,0 km/h (0 Bft) N-NE 22 0 min 0 W/m 7,8 C 8,9 C 1,4 km/h (1 Bft)
23/11/2011 14:40 8,9 C 93 % 1025,2 hPa 0,0 mm 4,0 km/h (1 Bft) NE 45 0 min 0 W/m 7,8 C 8,9 C 4,0 km/h (1 Bft)
23/11/2011 14:45 8,9 C 93 % 1025,3 hPa 0,0 mm 1,4 km/h (1 Bft) N-NE 22 0 min 0 W/m 7,8 C 8,9 C 4,3 km/h (1 Bft)
23/11/2011 14:50 8,9 C 93 % 1025,3 hPa 0,0 mm 2,9 km/h (1 Bft) N-NE 22 0 min 0 W/m 7,8 C 8,9 C 6,8 km/h (2 Bft)
23/11/2011 14:55 8,9 C 93 % 1025,3 hPa 0,0 mm 1,4 km/h (1 Bft) N-NE 22 0 min 0 W/m 7,8 C 8,9 C 4,0 km/h (1 Bft)
23/11/2011 15:00 8,8 C 93 % 1025,4 hPa 0,0 mm 1,4 km/h (1 Bft) N 360 0 min 0 W/m 7,7 C 8,8 C 1,4 km/h (1 Bft)
23/11/2011 15:05 8,8 C 93 % 1025,4 hPa 0,0 mm 2,9 km/h (1 Bft) N-NE 22 0 min 0 W/m 7,7 C 8,8 C 4,3 km/h (1 Bft)
23/11/2011 15:10 8,8 C 93 % 1025,3 hPa 0,0 mm 2,9 km/h (1 Bft) NE 45 0 min 0 W/m 7,7 C 8,8 C 7,2 km/h (2 Bft)
23/11/2011 15:15 8,8 C 93 % 1025,4 hPa 0,0 mm 2,9 km/h (1 Bft) NE 45 0 min 0 W/m 7,7 C 8,8 C 2,9 km/h (1 Bft)
23/11/2011 15:20 8,8 C 93 % 1025,4 hPa 0,0 mm 5,0 km/h (1 Bft) N-NE 22 0 min 0 W/m 7,7 C 8,4 C 6,8 km/h (2 Bft)
23/11/2011 15:25 8,7 C 93 % 1025,4 hPa 0,0 mm 1,4 km/h (1 Bft) NE 45 0 min 0 W/m 7,6 C 8,7 C 1,4 km/h (1 Bft)
23/11/2011 15:30 8,6 C 93 % 1025,4 hPa 0,0 mm 1,1 km/h (1 Bft) N-NE 22 0 min 0 W/m 7,5 C 8,6 C 1,1 km/h (1 Bft)
23/11/2011 15:35 8,6 C 93 % 1025,5 hPa 0,0 mm 6,8 km/h (2 Bft) N-NO 337 0 min 0 W/m 7,5 C 7,6 C 8,3 km/h (2 Bft)
23/11/2011 15:40 8,6 C 93 % 1025,5 hPa 0,0 mm 0,4 km/h (0 Bft) NE 45 0 min 0 W/m 7,5 C 8,6 C 0,4 km/h (0 Bft)
23/11/2011 15:45 8,6 C 93 % 1025,6 hPa 0,0 mm 4,0 km/h (1 Bft) N 360 0 min 0 W/m 7,5 C 8,6 C 4,0 km/h (1 Bft)
23/11/2011 15:50 8,5 C 93 % 1025,6 hPa 0,0 mm 0,4 km/h (0 Bft) N 360 0 min 0 W/m 7,4 C 8,5 C 0,4 km/h (0 Bft)
23/11/2011 15:55 8,4 C 93 % 1025,6 hPa 0,0 mm 0,4 km/h (0 Bft) N-NE 22 0 min 0 W/m 7,3 C 8,4 C 0,4 km/h (0 Bft)
23/11/2011 16:00 8,4 C 93 % 1025,6 hPa 0,0 mm 0,4 km/h (0 Bft) N-NE 22 0 min 0 W/m 7,3 C 8,4 C 1,4 km/h (1 Bft)
23/11/2011 16:05 8,4 C 93 % 1025,7 hPa 0,0 mm 0,4 km/h (0 Bft) N-NE 22 0 min 0 W/m 7,3 C 8,4 C 0,4 km/h (0 Bft)
23/11/2011 16:10 8,4 C 93 % 1025,7 hPa 0,0 mm 1,4 km/h (1 Bft) N-NE 22 0 min 0 W/m 7,3 C 8,4 C 4,0 km/h (1 Bft)
23/11/2011 16:15 8,4 C 93 % 1025,7 hPa 0,0 mm 1,1 km/h (1 Bft) NE 45 0 min 0 W/m 7,3 C 8,4 C 1,1 km/h (1 Bft)
23/11/2011 16:20 8,3 C 93 % 1025,8 hPa 0,0 mm 0,4 km/h (0 Bft) N-NE 22 0 min 0 W/m 7,2 C 8,3 C 0,4 km/h (0 Bft)
23/11/2011 16:25 8,3 C 93 % 1026,0 hPa 0,0 mm 1,4 km/h (1 Bft) NE 45 0 min 0 W/m 7,2 C 8,3 C 4,0 km/h (1 Bft)
23/11/2011 16:30 8,3 C 93 % 1026,1 hPa 0,0 mm 2,9 km/h (1 Bft) N-NE 22 0 min 0 W/m 7,2 C 8,3 C 4,0 km/h (1 Bft)
23/11/2011 16:35 8,3 C 93 % 1026,2 hPa 0,0 mm 2,9 km/h (1 Bft) NE 45 0 min 0 W/m 7,2 C 8,3 C 6,8 km/h (2 Bft)
23/11/2011 16:40 8,3 C 93 % 1026,3 hPa 0,0 mm 0,4 km/h (0 Bft) N-NE 22 0 min 0 W/m 7,2 C 8,3 C 4,0 km/h (1 Bft)
23/11/2011 16:45 8,3 C 93 % 1026,3 hPa 0,0 mm 1,1 km/h (1 Bft) E-NE 67 0 min 0 W/m 7,2 C 8,3 C 3,6 km/h (1 Bft)
23/11/2011 16:50 8,3 C 93 % 1026,4 hPa 0,0 mm 0,0 km/h (0 Bft) N-NE 22 0 min 0 W/m 7,2 C 8,3 C 0,0 km/h (0 Bft)
23/11/2011 16:55 8,3 C 93 % 1026,3 hPa 0,0 mm 0,4 km/h (0 Bft) N-NE 22 0 min 0 W/m 7,2 C 8,3 C 0,4 km/h (0 Bft)
23/11/2011 17:00 8,3 C 93 % 1026,4 hPa 0,0 mm 3,2 km/h (1 Bft) NE 45 0 min 0 W/m 7,2 C 8,3 C 4,0 km/h (1 Bft)
23/11/2011 17:05 8,3 C 93 % 1026,5 hPa 0,0 mm 0,4 km/h (0 Bft) NE 45 0 min 0 W/m 7,2 C 8,3 C 2,9 km/h (1 Bft)
23/11/2011 17:10 8,3 C 93 % 1026,5 hPa 0,0 mm 0,0 km/h (0 Bft) NE 45 0 min 0 W/m 7,2 C 8,3 C 0,0 km/h (0 Bft)
23/11/2011 17:15 8,3 C 93 % 1026,6 hPa 0,0 mm 1,8 km/h (1 Bft) NE 45 0 min 0 W/m 7,2 C 8,3 C 4,3 km/h (1 Bft)
23/11/2011 17:20 8,3 C 93 % 1026,6 hPa 0,0 mm 0,0 km/h (0 Bft) NE 45 0 min 0 W/m 7,2 C 8,3 C 0,0 km/h (0 Bft)
23/11/2011 17:25 8,3 C 93 % 1026,6 hPa 0,0 mm 0,0 km/h (0 Bft) N-NE 22 0 min 0 W/m 7,2 C 8,3 C 0,0 km/h (0 Bft)
23/11/2011 17:30 8,4 C 93 % 1026,7 hPa 0,0 mm 0,0 km/h (0 Bft) N-NE 22 0 min 0 W/m 7,3 C 8,4 C 0,0 km/h (0 Bft)
23/11/2011 17:35 8,4 C 93 % 1026,7 hPa 0,0 mm 0,0 km/h (0 Bft) NE 45 0 min 0 W/m 7,3 C 8,4 C 0,0 km/h (0 Bft)
23/11/2011 17:40 8,4 C 93 % 1026,8 hPa 0,0 mm 0,0 km/h (0 Bft) NE 45 0 min 0 W/m 7,3 C 8,4 C 3,2 km/h (1 Bft)
23/11/2011 17:45 8,4 C 93 % 1026,8 hPa 0,0 mm 0,4 km/h (0 Bft) N-NE 22 0 min 0 W/m 7,3 C 8,4 C 3,2 km/h (1 Bft)
23/11/2011 17:50 8,4 C 93 % 1026,8 hPa 0,0 mm 0,0 km/h (0 Bft) N-NE 22 0 min 0 W/m 7,3 C 8,4 C 0,0 km/h (0 Bft)
23/11/2011 17:55 8,4 C 93 % 1027,0 hPa 0,0 mm 0,7 km/h (0 Bft) NE 45 0 min 0 W/m 7,3 C 8,4 C 3,6 km/h (1 Bft)
23/11/2011 18:00 8,4 C 93 % 1026,9 hPa 0,0 mm 0,4 km/h (0 Bft) NE 45 0 min 0 W/m 7,3 C 8,4 C 3,6 km/h (1 Bft)
23/11/2011 18:05 8,4 C 93 % 1027,0 hPa 0,0 mm 0,4 km/h (0 Bft) N-NE 22 0 min 0 W/m 7,3 C 8,4 C 3,2 km/h (1 Bft)
23/11/2011 18:10 8,5 C 93 % 1027,1 hPa 0,0 mm 2,2 km/h (1 Bft) N-NE 22 0 min 0 W/m 7,4 C 8,5 C 4,0 km/h (1 Bft)
23/11/2011 18:15 8,5 C 93 % 1027,1 hPa 0,0 mm 1,1 km/h (1 Bft) NE 45 0 min 0 W/m 7,4 C 8,5 C 3,6 km/h (1 Bft)
23/11/2011 18:20 8,5 C 93 % 1027,1 hPa 0,0 mm 0,4 km/h (0 Bft) N-NE 22 0 min 0 W/m 7,4 C 8,5 C 3,6 km/h (1 Bft)
23/11/2011 18:25 8,5 C 94 % 1027,1 hPa 0,0 mm 0,0 km/h (0 Bft) E-NE 67 0 min 0 W/m 7,6 C 8,5 C 0,0 km/h (0 Bft)
23/11/2011 18:30 8,5 C 94 % 1027,1 hPa 0,0 mm 0,7 km/h (0 Bft) N-NE 22 0 min 0 W/m 7,6 C 8,5 C 4,3 km/h (1 Bft)
23/11/2011 18:35 8,5 C 94 % 1027,1 hPa 0,0 mm 0,0 km/h (0 Bft) NE 45 0 min 0 W/m 7,6 C 8,5 C 2,9 km/h (1 Bft)
23/11/2011 18:40 8,5 C 94 % 1027,1 hPa 0,0 mm 1,8 km/h (1 Bft) NE 45 0 min 0 W/m 7,6 C 8,5 C 1,8 km/h (1 Bft)
23/11/2011 18:45 8,5 C 94 % 1027,2 hPa 0,0 mm 0,4 km/h (0 Bft) NE 45 0 min 0 W/m 7,6 C 8,5 C 3,2 km/h (1 Bft)
23/11/2011 18:50 8,5 C 94 % 1027,2 hPa 0,0 mm 0,4 km/h (0 Bft) NE 45 0 min 0 W/m 7,6 C 8,5 C 3,2 km/h (1 Bft)
23/11/2011 18:55 8,5 C 94 % 1027,3 hPa 0,0 mm 1,4 km/h (1 Bft) N-NE 22 0 min 0 W/m 7,6 C 8,5 C 1,4 km/h (1 Bft)
23/11/2011 19:00 8,5 C 94 % 1027,2 hPa 0,0 mm 0,4 km/h (0 Bft) NE 45 0 min 0 W/m 7,6 C 8,5 C 0,4 km/h (0 Bft)
23/11/2011 19:05 8,5 C 94 % 1027,2 hPa 0,0 mm 0,0 km/h (0 Bft) E-NE 67 0 min 0 W/m 7,6 C 8,5 C 0,0 km/h (0 Bft)
23/11/2011 19:10 8,6 C 94 % 1027,2 hPa 0,0 mm 0,4 km/h (0 Bft) E-NE 67 0 min 0 W/m 7,7 C 8,6 C 4,3 km/h (1 Bft)
23/11/2011 19:15 8,5 C 94 % 1027,3 hPa 0,0 mm 0,0 km/h (0 Bft) E 90 0 min 0 W/m 7,6 C 8,5 C 3,2 km/h (1 Bft)
23/11/2011 19:20 8,6 C 94 % 1027,4 hPa 0,0 mm 1,1 km/h (1 Bft) NE 45 0 min 0 W/m 7,7 C 8,6 C 4,0 km/h (1 Bft)
23/11/2011 19:25 8,6 C 94 % 1027,5 hPa 0,0 mm 1,1 km/h (1 Bft) NE 45 0 min 0 W/m 7,7 C 8,6 C 3,6 km/h (1 Bft)
23/11/2011 19:30 8,6 C 94 % 1027,4 hPa 0,0 mm 5,8 km/h (2 Bft) E-NE 67 0 min 0 W/m 7,7 C 7,9 C 7,9 km/h (2 Bft)
23/11/2011 19:35 8,6 C 94 % 1027,5 hPa 0,0 mm 1,4 km/h (1 Bft) NE 45 0 min 0 W/m 7,7 C 8,6 C 3,2 km/h (1 Bft)
23/11/2011 19:40 8,6 C 94 % 1027,5 hPa 0,0 mm 0,7 km/h (0 Bft) E-NE 67 0 min 0 W/m 7,7 C 8,6 C 4,3 km/h (1 Bft)
23/11/2011 19:45 8,5 C 94 % 1027,5 hPa 0,0 mm 1,4 km/h (1 Bft) E-NE 67 0 min 0 W/m 7,6 C 8,5 C 4,3 km/h (1 Bft)
23/11/2011 19:50 8,5 C 94 % 1027,5 hPa 0,0 mm 0,0 km/h (0 Bft) E-NE 67 0 min 0 W/m 7,6 C 8,5 C 0,0 km/h (0 Bft)
23/11/2011 19:55 8,4 C 94 % 1027,6 hPa 0,0 mm 2,5 km/h (1 Bft) E-NE 67 0 min 0 W/m 7,5 C 8,4 C 4,0 km/h (1 Bft)
23/11/2011 20:00 8,4 C 94 % 1027,6 hPa 0,0 mm 1,4 km/h (1 Bft) E-NE 67 0 min 0 W/m 7,5 C 8,4 C 3,6 km/h (1 Bft)
23/11/2011 20:05 8,4 C 94 % 1027,7 hPa 0,0 mm 0,0 km/h (0 Bft) E-NE 67 0 min 0 W/m 7,5 C 8,4 C 0,0 km/h (0 Bft)
23/11/2011 20:10 8,4 C 94 % 1027,8 hPa 0,0 mm 0,0 km/h (0 Bft) E-NE 67 0 min 0 W/m 7,5 C 8,4 C 0,0 km/h (0 Bft)
23/11/2011 20:15 8,4 C 94 % 1027,9 hPa 0,0 mm 0,0 km/h (0 Bft) E-NE 67 0 min 0 W/m 7,5 C 8,4 C 0,0 km/h (0 Bft)
23/11/2011 20:20 8,4 C 94 % 1028,1 hPa 0,0 mm 2,2 km/h (1 Bft) NE 45 0 min 0 W/m 7,5 C 8,4 C 4,3 km/h (1 Bft)
23/11/2011 20:25 8,4 C 94 % 1028,1 hPa 0,0 mm 0,4 km/h (0 Bft) NE 45 0 min 0 W/m 7,5 C 8,4 C 4,3 km/h (1 Bft)
23/11/2011 20:30 8,4 C 94 % 1028,1 hPa 0,0 mm 0,0 km/h (0 Bft) E-NE 67 0 min 0 W/m 7,5 C 8,4 C 0,0 km/h (0 Bft)
23/11/2011 20:35 8,4 C 94 % 1028,1 hPa 0,0 mm 0,0 km/h (0 Bft) E-NE 67 0 min 0 W/m 7,5 C 8,4 C 0,0 km/h (0 Bft)
23/11/2011 20:40 8,4 C 94 % 1028,2 hPa 0,0 mm 0,0 km/h (0 Bft) E-NE 67 0 min 0 W/m 7,5 C 8,4 C 2,9 km/h (1 Bft)
23/11/2011 20:45 8,4 C 94 % 1028,2 hPa 0,0 mm 1,8 km/h (1 Bft) E-NE 67 0 min 0 W/m 7,5 C 8,4 C 4,0 km/h (1 Bft)
23/11/2011 20:50 8,4 C 94 % 1028,2 hPa 0,0 mm 2,2 km/h (1 Bft) NE 45 0 min 0 W/m 7,5 C 8,4 C 4,3 km/h (1 Bft)
23/11/2011 20:55 8,4 C 94 % 1028,3 hPa 0,0 mm 0,0 km/h (0 Bft) NE 45 0 min 0 W/m 7,5 C 8,4 C 0,0 km/h (0 Bft)
23/11/2011 21:00 8,4 C 94 % 1028,4 hPa 0,0 mm 1,4 km/h (1 Bft) E-NE 67 0 min 0 W/m 7,5 C 8,4 C 4,3 km/h (1 Bft)
23/11/2011 21:05 8,4 C 94 % 1028,3 hPa 0,0 mm 0,0 km/h (0 Bft) E-NE 67 0 min 0 W/m 7,5 C 8,4 C 0,0 km/h (0 Bft)
23/11/2011 21:10 8,4 C 94 % 1028,4 hPa 0,0 mm 0,7 km/h (0 Bft) NE 45 0 min 0 W/m 7,5 C 8,4 C 0,7 km/h (0 Bft)
23/11/2011 21:15 8,4 C 94 % 1028,4 hPa 0,0 mm 0,0 km/h (0 Bft) E-NE 67 0 min 0 W/m 7,5 C 8,4 C 0,0 km/h (0 Bft)
23/11/2011 21:20 8,5 C 94 % 1028,4 hPa 0,0 mm 0,0 km/h (0 Bft) E-NE 67 0 min 0 W/m 7,6 C 8,5 C 0,0 km/h (0 Bft)
23/11/2011 21:25 8,5 C 94 % 1028,4 hPa 0,0 mm 1,4 km/h (1 Bft) E-NE 67 0 min 0 W/m 7,6 C 8,5 C 4,0 km/h (1 Bft)
23/11/2011 21:30 8,5 C 94 % 1028,4 hPa 0,0 mm 0,0 km/h (0 Bft) E-NE 67 0 min 0 W/m 7,6 C 8,5 C 0,0 km/h (0 Bft)
23/11/2011 21:35 8,5 C 94 % 1028,3 hPa 0,0 mm 0,4 km/h (0 Bft) E-NE 67 0 min 0 W/m 7,6 C 8,5 C 0,4 km/h (0 Bft)
23/11/2011 21:40 8,5 C 94 % 1028,3 hPa 0,0 mm 0,0 km/h (0 Bft) E-NE 67 0 min 0 W/m 7,6 C 8,5 C 2,9 km/h (1 Bft)
23/11/2011 21:45 8,5 C 94 % 1028,3 hPa 0,0 mm 0,4 km/h (0 Bft) E-NE 67 0 min 0 W/m 7,6 C 8,5 C 0,4 km/h (0 Bft)
23/11/2011 21:50 8,5 C 94 % 1028,4 hPa 0,0 mm 4,0 km/h (1 Bft) E-NE 67 0 min 0 W/m 7,6 C 8,5 C 7,9 km/h (2 Bft)
23/11/2011 21:55 8,5 C 94 % 1028,5 hPa 0,0 mm 0,0 km/h (0 Bft) NE 45 0 min 0 W/m 7,6 C 8,5 C 3,6 km/h (1 Bft)
23/11/2011 22:00 8,6 C 94 % 1028,5 hPa 0,0 mm 0,7 km/h (0 Bft) E-NE 67 0 min 0 W/m 7,7 C 8,6 C 4,0 km/h (1 Bft)
23/11/2011 22:05 8,5 C 94 % 1028,4 hPa 0,0 mm 0,0 km/h (0 Bft) E-NE 67 0 min 0 W/m 7,6 C 8,5 C 0,0 km/h (0 Bft)
23/11/2011 22:10 8,5 C 94 % 1028,5 hPa 0,0 mm 1,1 km/h (1 Bft) E-NE 67 0 min 0 W/m 7,6 C 8,5 C 4,0 km/h (1 Bft)
23/11/2011 22:15 8,6 C 94 % 1028,4 hPa 0,0 mm 0,0 km/h (0 Bft) E-NE 67 0 min 0 W/m 7,7 C 8,6 C 0,0 km/h (0 Bft)
23/11/2011 22:20 8,6 C 94 % 1028,4 hPa 0,0 mm 0,0 km/h (0 Bft) NE 45 0 min 0 W/m 7,7 C 8,6 C 0,0 km/h (0 Bft)
23/11/2011 22:25 8,6 C 94 % 1028,3 hPa 0,0 mm 0,4 km/h (0 Bft) E-NE 67 0 min 0 W/m 7,7 C 8,6 C 1,8 km/h (1 Bft)
23/11/2011 22:30 8,6 C 94 % 1028,4 hPa 0,0 mm 1,8 km/h (1 Bft) E-NE 67 0 min 0 W/m 7,7 C 8,6 C 1,8 km/h (1 Bft)
23/11/2011 22:35 8,6 C 94 % 1028,4 hPa 0,0 mm 0,0 km/h (0 Bft) NE 45 0 min 0 W/m 7,7 C 8,6 C 2,9 km/h (1 Bft)
23/11/2011 22:40 8,6 C 94 % 1028,4 hPa 0,0 mm 1,8 km/h (1 Bft) E-NE 67 0 min 0 W/m 7,7 C 8,6 C 3,2 km/h (1 Bft)
23/11/2011 22:45 8,6 C 94 % 1028,4 hPa 0,0 mm 0,7 km/h (0 Bft) NE 45 0 min 0 W/m 7,7 C 8,6 C 3,6 km/h (1 Bft)
23/11/2011 22:50 8,6 C 94 % 1028,5 hPa 0,0 mm 1,8 km/h (1 Bft) N-NE 22 0 min 0 W/m 7,7 C 8,6 C 7,6 km/h (2 Bft)
23/11/2011 22:55 8,6 C 94 % 1028,5 hPa 0,0 mm 0,0 km/h (0 Bft) E-NE 67 0 min 0 W/m 7,7 C 8,6 C 0,0 km/h (0 Bft)
23/11/2011 23:00 8,6 C 94 % 1028,5 hPa 0,0 mm 3,2 km/h (1 Bft) NE 45 0 min 0 W/m 7,7 C 8,6 C 5,8 km/h (2 Bft)
23/11/2011 23:05 8,8 C 94 % 1028,5 hPa 0,0 mm 1,4 km/h (1 Bft) NE 45 0 min 0 W/m 7,9 C 8,8 C 3,6 km/h (1 Bft)
23/11/2011 23:10 8,8 C 93 % 1028,6 hPa 0,0 mm 0,0 km/h (0 Bft) E-NE 67 0 min 0 W/m 7,7 C 8,8 C 0,0 km/h (0 Bft)
23/11/2011 23:15 8,8 C 93 % 1028,7 hPa 0,0 mm 5,4 km/h (2 Bft) NE 45 0 min 0 W/m 7,7 C 8,3 C 6,5 km/h (2 Bft)
23/11/2011 23:20 8,8 C 93 % 1028,7 hPa 0,0 mm 0,0 km/h (0 Bft) E-NE 67 0 min 0 W/m 7,7 C 8,8 C 3,2 km/h (1 Bft)
23/11/2011 23:25 8,8 C 93 % 1028,8 hPa 0,0 mm 0,0 km/h (0 Bft) E-NE 67 0 min 0 W/m 7,7 C 8,8 C 0,0 km/h (0 Bft)
23/11/2011 23:30 8,8 C 93 % 1028,8 hPa 0,0 mm 0,0 km/h (0 Bft) N-NE 22 0 min 0 W/m 7,7 C 8,8 C 2,9 km/h (1 Bft)
23/11/2011 23:35 8,8 C 93 % 1028,7 hPa 0,0 mm 1,4 km/h (1 Bft) E 90 0 min 0 W/m 7,7 C 8,8 C 1,4 km/h (1 Bft)
23/11/2011 23:40 8,8 C 93 % 1028,8 hPa 0,0 mm 4,0 km/h (1 Bft) N-NE 22 0 min 0 W/m 7,7 C 8,8 C 9,4 km/h (2 Bft)
23/11/2011 23:45 8,8 C 93 % 1028,8 hPa 0,0 mm 3,2 km/h (1 Bft) N-NE 22 0 min 0 W/m 7,7 C 8,8 C 4,3 km/h (1 Bft)
23/11/2011 23:50 8,8 C 93 % 1028,9 hPa 0,0 mm 1,8 km/h (1 Bft) NE 45 0 min 0 W/m 7,7 C 8,8 C 4,0 km/h (1 Bft)
23/11/2011 23:55 8,8 C 93 % 1029,0 hPa 0,0 mm 3,2 km/h (1 Bft) E-NE 67 0 min 0 W/m 7,7 C 8,8 C 3,2 km/h (1 Bft)
_ Min-Heure 08:30 00:10 00:15 - 23:30 - - - - 08:30 08:30 23:25
Minimum _ 4,9 C 86 % 1020,8 hPa - 0,0 km/h (0 Bft) - - - - 3,9 C 4,9 C 0,0 km/h (0 Bft)
_ Max-Heure 14:20 23:05 23:55 23:55 15:35 - - 23:55 23:55 14:20 14:20 23:40
Maximum _ 9,0 C 94 % 1029,0 hPa 0,0 mm 6,8 km/h
N-NO (2 Bft)
- - 0 min 0 W/m 8,1 C 9,0 C 9,4 km/h
N-NE (2 Bft)
Moyenne _ 7,6 C 92 % 1024,9 hPa #0,0 mm 0,6 km/h (0 Bft) N-NE - #0 min. 0 W/m 6,4 C 7,5 C 1,4 km/h (1 Bft)
Saint Bonnet de Bellac- Haute Vienne - France